Starlink 35086

operational
NORAD ID: 65699 Int'l Des: 2025-212 Owner: SPXS Country: US Constellation: starlink
LEOCIRCULAR

About Starlink 35086

Description loading...

Live Position

Loading 3D Globe...

Upcoming Passes

Altitude History

Altitude vs Time

uPlot chart will show altitude changes over time

Two-Line Element Set

1 65699U 25212Z 26063.10239928 .00036385 00000-0 12336-2 0 9990
2 65699 53.1624 11.9424 0003297 180.6043 179.4954 15.30222301 26334
Epoch: Mar 4, 2026 • Age: 19 hours

Current Status

Altitude 490.3 km
Velocity 7.62 km/s
Sub-Earth Point -47.51°S, 152.48°E
Launch Date Sep 21, 2025
Age 0.4 years
Type internet

Technical Details

Classification Payload
Mass 575.00 kg
Dry Mass 530.00 kg
Total Mass 575.00 kg
Length 0.30 m
Diameter 4.10 m
Span 29.00 m
Shape Box + pan
Manufacturer SPXS
Bus Type Starlink V2MO
Phase Status In Orbit
Owner/State SPXS/US

Large Constellations

Loading constellations...